STARLINK-30417

decayed
NORAD ID: 57822 Int'l Des: 2023-138 Owner: SPXS Country: US Constellation: starlink
LEOCIRCULAR
Group

About STARLINK-30417

Description loading...

Altitude History

Altitude vs Time

uPlot chart will show altitude changes over time

Two-Line Element Set

1 57822U 23138Q 24232.59634801 .26380030 91892-5 52885-2 0 9996
2 57822 42.9828 32.4523 0016124 291.8969 117.1000 16.29977575 53811
Epoch: Aug 19, 2024 • Age: 9449 hours

Current Status

Position data unavailable
Launch Date Sep 9, 2023
Age 2 years
Decay Date Aug 19, 2024
Type internet

Technical Details

Classification Payload
Mass 730.00 kg
Dry Mass 700.00 kg
Total Mass 730.00 kg
Length 0.30 m
Diameter 4.10 m
Span 29.00 m
Shape Box + pan
Manufacturer SPXS
Bus Type Starlink V2M
Phase Status Unknown Transfer Status
Owner/State SPXS/US

Large Constellations

Loading constellations...